TimeAKST,TemperatureF,Dew PointF,Humidity,Sea Level PressureIn,VisibilityMPH,Wind Direction,Wind SpeedMPH,Gust SpeedMPH,PrecipitationIn,Events,Conditions,WindDirDegrees,DateUTC
12:53 AM,30.9,26.1,82,29.36,10.0,NNE,3.5,-,N/A,,Overcast,30,2012-11-04 08:53:00
1:53 AM,30.9,25.0,79,29.35,10.0,Calm,Calm,-,N/A,,Mostly Cloudy,0,2012-11-04 09:53:00
1:53 AM,30.0,25.0,82,29.35,10.0,Calm,Calm,-,N/A,,Overcast,0,2012-11-04 10:53:00
3:53 AM,28.0,24.1,85,29.34,10.0,NE,3.5,-,N/A,,Clear,50,2012-11-04 12:53:00
4:53 AM,28.0,23.0,81,29.34,10.0,Calm,Calm,-,N/A,,Clear,0,2012-11-04 13:53:00
5:53 AM,26.1,21.9,84,29.34,10.0,Calm,Calm,-,N/A,,Clear,0,2012-11-04 14:53:00
6:53 AM,23.0,19.9,88,29.34,10.0,Calm,Calm,-,N/A,,Clear,0,2012-11-04 15:53:00
7:53 AM,24.1,21.0,88,29.34,10.0,Calm,Calm,-,N/A,,Partly Cloudy,0,2012-11-04 16:53:00
8:53 AM,24.1,21.0,88,29.34,10.0,Calm,Calm,-,N/A,,Scattered Clouds,0,2012-11-04 17:53:00
9:53 AM,27.0,23.0,85,29.34,10.0,NE,4.6,-,N/A,,Scattered Clouds,40,2012-11-04 18:53:00
10:53 AM,30.9,25.0,79,29.34,10.0,NNE,4.6,-,N/A,,Scattered Clouds,30,2012-11-04 19:53:00
11:53 AM,35.1,28.0,76,29.33,10.0,East,5.8,-,N/A,,Clear,80,2012-11-04 20:53:00
12:53 PM,36.0,27.0,70,29.34,10.0,Calm,Calm,-,0.00,,Clear,0,2012-11-04 21:53:00
1:53 PM,35.1,27.0,72,29.33,10.0,Calm,Calm,-,N/A,,Clear,0,2012-11-04 22:53:00
2:53 PM,36.0,28.0,73,29.33,10.0,Calm,Calm,-,N/A,,Partly Cloudy,0,2012-11-04 23:53:00
3:53 PM,35.1,27.0,72,29.33,10.0,ENE,3.5,-,N/A,,Clear,60,2012-11-05 00:53:00
4:53 PM,32.0,26.1,79,29.34,10.0,Calm,Calm,-,N/A,,Clear,0,2012-11-05 01:53:00
5:53 PM,28.0,24.1,85,29.34,10.0,North,3.5,-,N/A,,Clear,10,2012-11-05 02:53:00
6:53 PM,26.1,21.9,84,29.35,10.0,NNE,3.5,-,N/A,,Clear,30,2012-11-05 03:53:00
7:53 PM,26.1,21.9,84,29.36,10.0,Calm,Calm,-,N/A,,Clear,0,2012-11-05 04:53:00
8:53 PM,24.1,21.0,88,29.37,10.0,NE,3.5,-,N/A,,Clear,40,2012-11-05 05:53:00
9:53 PM,25.0,19.0,78,29.39,10.0,NE,5.8,-,N/A,,Clear,50,2012-11-05 06:53:00
10:53 PM,26.1,18.0,71,29.41,10.0,Calm,Calm,-,N/A,,Clear,0,2012-11-05 07:53:00